COSMOS 2251 DEB, 38067

Orbit data source: Space-Track

COSMOS 2251 DEB, 38067 is space debris in LEO originally from a launch on Wed, 16 Jun 1993 UTC launched from the Plesetsk Missile And Space Complex (PKMTR). The debris from Iridium 33, an American commercial communications satellite, has been tracked extensively since its accidental collision with the defunct Russian satellite Cosmos 2251 in 2009. This event, occurring at high speed in low Earth orbit (LEO), generated thousands of pieces of space debris, significantly increasing the risk of further collisions. The Iridium 33 debris cloud has impacted space traffic management and orbital debris mitigation strategies, making it a subject of ongoing study in space situational awareness.

Loading next visibility...
Identifier
38067, 1993-036BRZ
Orbit
LEO
Country
Flag of CISCIS
Related business
Manufacturer
Unknown
Mission
Spacecraft
Bus & Motor
Unknown
Mass
Unknown
Launch date (UTC)
1993-06-16 (33 years ago)
Launch vehicle
Unknown
Launch site
Plesetsk Missile And Space Complex (PKMTR)
Object type
Payload
Rocket body
Debris
Shape & HBR
Unknown shape, 0.1 m
Radar Cross Section
Small (<0.1 m²)

Expand to show TLE details & history
Last TLE update: 2 weeks ago

TLE from 2 weeks ago
0 COSMOS 2251 DEB
1 38067U 93036BRZ 26025.70914999  .00002533  00000-0  50101-3 0  9991
2 38067  74.0153 190.3341 0071291 326.9569  46.9497 14.61302967631982
Epoch: 2026-01-25T17:01Z
TLE epoch observation values (Epoch: 2026-01-25T17:01:10.559Z)
Latitude
13.9094°
Longitude
174.0707°
Altitude
656.666 km
Speed
7.549 km/s
True Right ascension
12h 57m 31s
True Declination
13° 49' 42"
Sunlit
Object was in full shadow at epoch
Visualization orbit readout
Latitude
Unknown
Longitude
Unknown
Altitude
Unknown
Speed
Unknown
Apparent Right ascension
Unknown
Apparent Declination
Unknown
Sunlit
N/A
Visualization observer readout
Local Sidereal Time
07:59:37
Azimuth
Unknown
Elevation
Unknown
Doppler factor
Unknown
Orbital elements
Apogee altitude
736.933 km
Perigee altitude
636.203 km
Semi-major axis
7,064.705 km
Eccentricity
0.00713
Inclination
74.0153°
RAAN
190.3341°
Arg. of periapsis
326.9569°
True anomaly
47.55032°
Mean anomaly
46.9497°
Eccentric anomaly
47.24965°
Mean motion
3.65512 °/min
Orbital period
98.49 mins
BSTAR
0.00050101
Loading maneuver chart data...
Computing Atmospheric mass density...

Documentation

Showing up to 5 results
|